Content
SEND FEEDBACK

Daily
Averages
Monthly
Summary
United States of America

HAMILTON, ILLINOIS


Home > North America > United States > Illinois
Elevation: 518 feet     Latitude: 40 24N     Longitude: 091 22W

WEATHER
 
SELECT A DAY
Number of Records: 413,515;   Date Range: 2/11/95 - 7/26/14
 
SHARE

PRINT THIS DATA

[ ← Previous Day ]
WEATHER ALMANAC - JANUARY 31, 2013
[ Next Day → ]
[ °C ]   °F
Weather ElementAverageHighLow
Temperature14.8 °F24.8 °F (12:35 am)6.8 °F (8:35 pm)
Dewpoint5.2 °F15.8 °F (12:35 am)-4 °F (11:35 pm)
Humidity66 %80 % (4:15 am)57 % (5:35 pm)
Barometer30.08 in30.36 in (11:35 pm)29.85 in (12:35 am)
Wind Speed15.6 mph21.9 mph (12:55 pm)
Wind Gust29.9 mph (3:15 am)
Weather ElementAverage
Visibility9 mi
Wind DirectionWNW (290.9 °)

Weather ElementTotal
Precipitation---
Heating Degree Days49.2 (Base 65)
Averaged from 69 records on January 31, 2013
WEATHER CONDITIONS BREAKOUT
WIND DIRECTION BREAKOUT
WEATHER BY HOUR - JANUARY 31, 2013
[ °C ]   °F
Local TimeTemperatureDewpointHumidityBarometerVisibilityWind DirectionWind SpeedGust SpeedPrecipitationEventsConditions
12:35 AM24.8 °F15.8 °F69 %29.85 in10.0 miWest (260°)10.4 mphOvercast
12:55 AM24.8 °F15.8 °F69 %29.85 in10.0 miWest (260°)12.7 mph18.4 mphOvercast
1:15 AM24.8 °F15.8 °F69 %29.85 in10.0 miWSW (250°)13.8 mph18.4 mphOvercast
1:35 AM24.8 °F15.8 °F69 %29.85 in10.0 miWest (260°)13.8 mph23.0 mphOvercast
1:55 AM24.8 °F15.8 °F69 %29.86 in10.0 miWest (260°)19.6 mph25.3 mphOvercast
2:15 AM24.8 °F15.8 °F69 %29.87 in10.0 miWest (270°)13.8 mph19.6 mphOvercast
2:35 AM24.8 °F15.8 °F69 %29.87 in10.0 miWest (270°)16.1 mph21.9 mphSnowLight Snow
2:55 AM24.8 °F15.8 °F69 %29.87 in4.0 miWest (270°)19.6 mph24.2 mphSnowLight Snow
3:15 AM23.0 °F15.8 °F74 %29.87 in7.0 miWest (280°)18.4 mph29.9 mphSnowLight Snow
3:35 AM23.0 °F15.8 °F74 %29.88 in10.0 miWest (280°)15.0 mph20.7 mphOvercast
3:55 AM23.0 °F15.8 °F74 %29.87 in7.0 miWNW (300°)11.5 mphSnowLight Snow
4:15 AM21.2 °F15.8 °F80 %29.88 in10.0 miWNW (300°)11.5 mph17.3 mphSnowLight Snow
4:35 AM21.2 °F14.0 °F74 %29.88 in7.0 miWNW (300°)10.4 mph17.3 mphSnowLight Snow
4:55 AM21.2 °F14.0 °F74 %29.89 in7.0 miNW (310°)8.1 mphSnowLight Snow
5:15 AM19.4 °F12.2 °F74 %29.89 in10.0 miWNW (300°)10.4 mphSnowLight Snow
5:35 AM19.4 °F10.4 °F68 %29.90 in10.0 miWNW (290°)10.4 mphMostly Cloudy
6:15 AM17.6 °F8.6 °F68 %29.91 in10.0 miWest (270°)15.0 mphScattered Clouds
6:35 AM17.6 °F8.6 °F68 %29.91 in10.0 miWest (280°)15.0 mph20.7 mphClear
6:55 AM17.6 °F8.6 °F68 %29.93 in10.0 miWest (280°)19.6 mphClear
7:15 AM15.8 °F8.6 °F73 %29.94 in10.0 miWest (280°)12.7 mphScattered Clouds
7:35 AM15.8 °F6.8 °F68 %29.95 in10.0 miWNW (290°)15.0 mph18.4 mphMostly Cloudy
7:55 AM15.8 °F6.8 °F68 %29.95 in10.0 miWest (280°)13.8 mph17.3 mphMostly Cloudy
8:15 AM15.8 °F6.8 °F68 %29.97 in10.0 miNW (310°)12.7 mphMostly Cloudy
8:35 AM15.8 °F5.0 °F62 %29.98 in10.0 miWNW (300°)18.4 mph21.9 mphMostly Cloudy
8:55 AM14.0 °F5.0 °F67 %29.99 in10.0 miWNW (300°)13.8 mph24.2 mphScattered Clouds
9:15 AM15.8 °F6.8 °F68 %30.00 in10.0 miNW (320°)16.1 mph23.0 mphMostly Cloudy
9:35 AM15.8 °F6.8 °F68 %30.01 in10.0 miNW (310°)15.0 mph18.4 mphMostly Cloudy
9:55 AM15.8 °F6.8 °F68 %30.02 in10.0 miNW (310°)18.4 mph23.0 mphMostly Cloudy
10:15 AM15.8 °F3.2 °F58 %30.03 in10.0 miNW (310°)16.1 mph21.9 mphScattered Clouds
10:35 AM15.8 °F5.0 °F62 %30.04 in10.0 miWNW (300°)10.4 mphMostly Cloudy
10:55 AM15.8 °F5.0 °F62 %30.05 in10.0 miNW (310°)13.8 mph20.7 mphOvercast
11:15 AM15.8 °F3.2 °F58 %30.06 in10.0 miWNW (290°)16.1 mphOvercast
11:35 AM15.8 °F5.0 °F62 %30.06 in10.0 miWest (270°)17.3 mph23.0 mphOvercast
11:55 AM15.8 °F5.0 °F62 %30.06 in10.0 miWNW (300°)12.7 mph18.4 mphOvercast
12:15 PM15.8 °F3.2 °F58 %30.06 in10.0 miNW (310°)12.7 mph23.0 mphOvercast
12:35 PM15.8 °F3.2 °F58 %30.06 in10.0 miNW (310°)17.3 mph21.9 mphOvercast
12:55 PM15.8 °F3.2 °F58 %30.07 in10.0 miWNW (290°)21.9 mph26.5 mphOvercast
1:15 PM15.8 °F3.2 °F58 %30.09 in10.0 miWNW (300°)16.1 mph23.0 mphMostly Cloudy
1:35 PM14.0 °F3.2 °F62 %30.09 in7.0 miNW (310°)19.6 mph27.6 mphMostly Cloudy
1:55 PM14.0 °F5.0 °F67 %30.10 in5.0 miWNW (290°)18.4 mph24.2 mphHaze
2:15 PM14.0 °F3.2 °F62 %30.10 in5.0 miWNW (290°)19.6 mph25.3 mphHaze
2:35 PM14.0 °F3.2 °F62 %30.12 in7.0 miWNW (290°)17.3 mph26.5 mphMostly Cloudy
2:55 PM14.0 °F3.2 °F62 %30.13 in5.0 miWNW (300°)19.6 mph26.5 mphHaze
3:15 PM12.2 °F3.2 °F67 %30.14 in5.0 miWNW (300°)17.3 mph23.0 mphHaze
3:35 PM12.2 °F1.4 °F62 %30.14 in7.0 miWNW (300°)19.6 mph28.8 mphOvercast
3:55 PM12.2 °F1.4 °F62 %30.15 in10.0 miNW (310°)18.4 mph25.3 mphOvercast
4:15 PM12.2 °F3.2 °F67 %30.16 in4.0 miWNW (290°)18.4 mph25.3 mphHaze
4:35 PM12.2 °F3.2 °F67 %30.17 in3.0 miWNW (300°)12.7 mph21.9 mphSnowLight Snow
4:55 PM10.4 °F3.2 °F73 %30.18 in2.5 miNW (310°)15.0 mph23.0 mphSnowLight Snow
5:15 PM10.4 °F-0.4 °F62 %30.20 in10.0 miWNW (300°)18.4 mph24.2 mphScattered Clouds
5:35 PM10.4 °F-2.2 °F57 %30.21 in10.0 miWNW (300°)20.7 mph25.3 mphScattered Clouds
5:55 PM10.4 °F-2.2 °F57 %30.22 in10.0 miWNW (300°)16.1 mph28.8 mphScattered Clouds
6:15 PM8.6 °F-2.2 °F62 %30.23 in10.0 miWNW (300°)20.7 mph25.3 mphMostly Cloudy
6:35 PM8.6 °F-2.2 °F62 %30.24 in10.0 miNW (310°)20.7 mph27.6 mphOvercast
6:55 PM8.6 °F-2.2 °F62 %30.25 in10.0 miWNW (290°)20.7 mph27.6 mphOvercast
7:15 PM8.6 °F-2.2 °F62 %30.27 in10.0 miWNW (300°)16.1 mph25.3 mphOvercast
7:35 PM8.6 °F-0.4 °F67 %30.27 in10.0 miWest (280°)17.3 mph20.7 mphMostly Cloudy
7:55 PM8.6 °F-0.4 °F67 %30.28 in10.0 miWNW (290°)13.8 mph23.0 mphMostly Cloudy
8:15 PM8.6 °F-0.4 °F67 %30.28 in7.0 miWNW (290°)17.3 mphMostly Cloudy
8:35 PM6.8 °F-2.2 °F67 %30.29 in10.0 miWNW (290°)11.5 mph19.6 mphScattered Clouds
8:55 PM6.8 °F-2.2 °F67 %30.30 in10.0 miWNW (290°)18.4 mph21.9 mphClear
9:15 PM6.8 °F-2.2 °F67 %30.31 in10.0 miWNW (290°)15.0 mphClear
9:35 PM6.8 °F-2.2 °F67 %30.32 in10.0 miWest (280°)12.7 mph20.7 mphClear
9:55 PM6.8 °F-2.2 °F67 %30.32 in10.0 miWNW (290°)18.4 mphClear
10:15 PM6.8 °F-2.2 °F67 %30.33 in10.0 miWest (280°)15.0 mph23.0 mphClear
10:35 PM6.8 °F-2.2 °F67 %30.33 in10.0 miWest (280°)15.0 mph20.7 mphClear
10:55 PM6.8 °F-2.2 °F67 %30.34 in10.0 miWest (280°)12.7 mph21.9 mphClear
11:15 PM6.8 °F-2.2 °F67 %30.35 in10.0 miWest (280°)16.1 mph20.7 mphClear
11:35 PM6.8 °F-4.0 °F61 %30.36 in10.0 miWest (280°)10.4 mphClear
Hourly data recorded from KEOK, located miles away from Hamilton, Illinois







STORIES FROM OUR PARTNERS